Date String (YYYY-MM-DD hh:mm:ss) UTC,Instrument flags,Ambient pressure (hPa),Sample flow (lpm),Bypass flow (lpm),Sample temperature (°C),Ambient temperature (°C),ASC tube jacket temperature (°C),LED temperature (°C),Box temperature (°C),Sample RH (%),Span deviation,Mass concentration (μg/m³),Mass concentration (μg/m³),Mass concentration (μg/m³)
DateTimeUTC,F1_M11,P_M11,Q1_M11,Q2_M11,T1_M11,T2_M11,T3_M11,T4_M11,T5_M11,U1_M11,ZSPAN_M11,X0_M11,X2_M11,X1_M11
2022-03-10 18:00:00,,0823.1,5.00,0.00,22.2,21.6,00.0,31.1,24.1,05.3,0000.0,0008.60,0005.95,0005.68
2022-03-10 18:01:00,,0823.1,5.00,0.00,22.2,21.6,00.0,31.1,24.1,05.3,0000.0,0008.63,0005.98,0005.69
2022-03-10 18:02:00,,0823.1,5.00,0.00,22.2,21.6,00.0,31.1,24.1,05.3,0000.0,0008.58,0006.01,0005.70
2022-03-10 18:03:00,,0823.1,4.99,0.00,22.2,21.6,00.0,31.1,24.1,05.3,0000.0,0008.65,0006.00,0005.70
2022-03-10 18:04:00,,0823.1,5.00,0.00,22.2,21.6,00.0,31.1,24.0,05.3,0000.0,0008.68,0006.01,0005.71
2022-03-10 18:05:00,,0823.1,5.00,0.00,22.2,21.6,00.0,31.1,24.0,05.3,0000.0,0008.68,0006.01,0005.72
2022-03-10 18:06:00,,0823.0,5.00,0.00,22.2,21.6,00.0,31.1,24.1,05.3,0000.0,0008.61,0005.98,0005.71
2022-03-10 18:07:00,,0823.0,5.01,0.00,22.3,21.6,00.0,31.1,24.1,05.4,0000.0,0008.72,0005.96,0005.71
2022-03-10 18:08:00,,0823.1,5.00,0.00,22.3,21.6,00.0,31.2,24.1,05.4,0000.0,0008.75,0005.95,0005.71
2022-03-10 18:09:00,,0823.1,4.99,0.00,22.3,21.6,00.0,31.2,24.1,05.3,0000.0,0008.43,0005.94,0005.70
2022-03-10 18:10:00,,0823.1,5.00,0.00,22.3,21.7,00.0,31.2,24.1,05.4,0000.0,0008.39,0005.94,0005.70
2022-03-10 18:11:00,,0823.1,5.00,0.00,22.3,21.7,00.0,31.2,24.1,05.5,0000.0,0008.51,0005.98,0005.73
2022-03-10 18:12:00,,0823.1,5.00,0.00,22.3,21.6,00.0,31.2,24.1,05.4,0000.4,0008.51,0005.99,0005.74
2022-03-10 18:13:00,,0823.1,4.99,0.00,22.3,21.6,00.0,31.2,24.1,05.5,0001.3,0008.51,0005.99,0005.74
2022-03-10 18:14:00,,0823.2,5.00,0.00,22.3,21.6,00.0,31.2,24.0,05.5,0000.4,0008.89,0006.01,0005.75
2022-03-10 18:15:00,,0823.2,5.02,0.00,22.2,21.5,00.0,31.2,24.0,05.4,0000.0,0008.99,0006.01,0005.76
2022-03-10 18:16:00,,0823.3,4.99,0.00,22.2,21.5,00.0,31.2,23.9,05.4,0000.0,0008.97,0006.00,0005.75
2022-03-10 18:17:00,,0823.2,5.00,0.00,22.2,21.4,00.0,31.2,23.9,05.4,0000.0,0009.02,0006.03,0005.77
2022-03-10 18:18:00,,0823.1,5.00,0.00,22.2,21.4,00.0,31.1,23.9,05.4,0000.0,0009.01,0006.06,0005.78
2022-03-10 18:19:00,,0823.1,5.02,0.00,22.2,21.4,00.0,31.1,23.9,05.4,0000.0,0008.99,0006.09,0005.79
2022-03-10 18:20:00,,0823.1,4.99,0.00,22.2,21.4,00.0,31.1,23.9,05.6,0000.0,0009.45,0006.09,0005.80
2022-03-10 18:21:00,,0823.2,5.00,0.00,22.1,21.4,00.0,31.1,23.8,05.6,0000.0,0009.60,0006.08,0005.80
2022-03-10 18:22:00,,0823.3,5.00,0.00,22.1,21.3,00.0,31.1,23.8,05.4,0000.0,0009.53,0006.07,0005.80
2022-03-10 18:23:00,,0823.3,4.99,0.00,22.0,21.2,00.0,31.1,23.7,05.4,0000.0,0009.45,0006.06,0005.80
2022-03-10 18:24:00,,0823.3,5.01,0.00,22.0,21.2,00.0,31.1,23.7,05.5,0000.0,0009.55,0006.10,0005.81
2022-03-10 18:25:00,,0823.3,5.01,0.00,22.0,21.1,00.0,31.1,23.6,05.4,0000.0,0009.32,0006.14,0005.84
2022-03-10 18:26:00,,0823.3,4.99,0.00,21.9,21.1,00.0,31.0,23.6,05.4,0000.0,0009.05,0006.17,0005.87
2022-03-10 18:27:00,,0823.3,5.00,0.00,21.9,21.2,00.0,31.0,23.6,05.5,0000.0,0009.11,0006.22,0005.90
2022-03-10 18:28:00,,0823.3,5.01,0.00,22.0,22.1,00.0,31.1,23.8,05.6,0000.0,0009.12,0006.24,0005.91
2022-03-10 18:29:00,,0823.2,5.00,0.00,22.2,22.9,00.0,31.1,24.1,05.6,0000.0,0009.43,0006.24,0005.93
2022-03-10 18:30:00,,0823.2,4.99,0.00,22.3,22.8,00.0,31.1,24.2,05.4,0000.0,0009.60,0006.23,0005.94
2022-03-10 18:31:00,,0823.2,5.01,0.00,22.3,22.5,00.0,31.1,24.1,05.4,0000.0,0009.31,0006.25,0005.97
2022-03-10 18:32:00,,0823.2,5.00,0.00,22.2,22.2,00.0,31.1,24.0,05.3,0000.0,0009.21,0006.28,0006.00
2022-03-10 18:33:00,,0823.2,5.00,0.00,22.2,22.0,00.0,31.1,24.0,05.3,0000.0,0009.28,0006.32,0006.02
2022-03-10 18:34:00,,0823.2,5.00,0.00,22.2,21.9,00.0,31.1,24.0,05.5,0000.0,0009.46,0006.37,0006.04
2022-03-10 18:35:00,,0823.2,5.00,0.00,22.2,21.9,00.0,31.2,24.1,05.4,0000.0,0009.45,0006.36,0006.07
2022-03-10 18:36:00,,0823.2,5.00,0.00,22.2,21.8,00.0,31.2,24.0,05.4,0000.0,0009.46,0006.36,0006.07
2022-03-10 18:37:00,,0823.2,5.00,0.00,22.2,21.8,00.0,31.2,24.0,05.4,0000.0,0009.50,0006.39,0006.10
2022-03-10 18:38:00,,0823.2,5.00,0.00,22.2,21.8,00.0,31.2,24.0,05.4,0000.0,0009.58,0006.43,0006.13
2022-03-10 18:39:00,,0823.3,4.99,0.00,22.3,21.8,00.0,31.2,24.1,05.4,0000.0,0009.61,0006.45,0006.16
2022-03-10 18:40:00,,0823.2,4.99,0.00,22.3,21.8,00.0,31.2,24.1,05.5,0000.0,0009.84,0006.49,0006.19
2022-03-10 18:41:00,,0823.2,5.00,0.00,22.3,21.8,00.0,31.2,24.1,05.4,0000.0,0009.86,0006.55,0006.22
2022-03-10 18:42:00,,0823.2,5.00,0.00,22.3,21.8,00.0,31.2,24.1,05.4,0000.0,0009.97,0006.57,0006.23
2022-03-10 18:43:00,,0823.2,5.00,0.00,22.3,21.8,00.0,31.2,24.2,05.5,0000.0,0009.90,0006.60,0006.25
2022-03-10 18:44:00,,0823.3,5.01,0.00,22.3,21.8,00.0,31.2,24.2,05.6,0000.0,0009.86,0006.60,0006.26
2022-03-10 18:45:00,,0823.3,5.00,0.00,22.4,21.8,00.0,31.2,24.2,05.6,0000.0,0009.72,0006.61,0006.28
2022-03-10 18:46:00,,0823.2,4.99,0.00,22.4,21.9,00.0,31.2,24.3,05.6,0000.0,0009.95,0006.65,0006.31
2022-03-10 18:47:00,,0823.2,5.00,0.00,22.4,21.9,00.0,31.3,24.3,05.4,0000.0,0010.33,0006.69,0006.33
2022-03-10 18:48:00,,0823.2,5.00,0.00,22.4,21.9,00.0,31.3,24.3,05.4,0000.0,0010.34,0006.70,0006.35
2022-03-10 18:49:00,,0823.2,5.00,0.00,22.5,21.9,00.0,31.3,24.3,05.5,0000.0,0010.26,0006.70,0006.36
2022-03-10 18:50:00,,0823.2,4.99,0.00,22.5,21.9,00.0,31.3,24.3,05.3,0000.0,0010.24,0006.71,0006.38
2022-03-10 18:51:00,,0823.2,5.00,0.00,22.4,21.8,00.0,31.3,24.2,05.3,0000.0,0009.85,0006.72,0006.40
2022-03-10 18:52:00,,0823.2,5.00,0.00,22.4,21.8,00.0,31.3,24.2,05.3,0000.0,0009.56,0006.73,0006.42
2022-03-10 18:53:00,,0823.2,5.01,0.00,22.4,21.8,00.0,31.3,24.2,05.3,0000.0,0009.38,0006.74,0006.44
2022-03-10 18:54:00,,0823.1,4.99,0.00,22.4,21.8,00.0,31.3,24.2,05.4,0000.0,0009.35,0006.74,0006.46
2022-03-10 18:55:00,,0823.1,5.00,0.00,22.5,21.8,00.0,31.3,24.3,05.3,0000.0,0009.39,0006.77,0006.48
2022-03-10 18:56:00,,0823.1,4.99,0.00,22.5,21.9,00.0,31.3,24.3,05.4,0000.0,0009.42,0006.79,0006.50
2022-03-10 18:57:00,,0823.1,5.00,0.00,22.5,21.9,00.0,31.3,24.4,05.3,0000.0,0009.24,0006.77,0006.49
2022-03-10 18:58:00,,0823.1,5.00,0.00,22.5,21.9,00.0,31.4,24.4,05.4,0000.0,0008.80,0006.76,0006.50
2022-03-10 18:59:00,,0823.1,5.00,0.00,22.5,21.9,00.0,31.4,24.4,05.4,0000.0,0008.75,0006.75,0006.51
